Location: Cucq
(50.4773°N, 1.6202°E)
Time: 07:32:19
(UTC+00:00)

Cosmos 1758 Rocket - Pass Details

Date: 07 August 2020
Orbit: 603 x 635 km, 82.5° (Epoch: 26 September)

Event Time Altitude Azimuth Distance (km) Brightness Sun altitude
Rises 03:24:55 0° 351° (N) 2,871 7.5 -9.5°
Reaches altitude 10° 03:27:10 10° 354° (N) 1,962 6.6 -9.2°
Maximum altitude 03:31:29 68° 78° (ENE) 656 3.9 -8.7°
Drops below altitude 10° 03:35:46 10° 162° (SSE) 1,949 5.9 -8.1°
Sets 03:37:59 0° 165° (SSE) 2,851 6.7 -7.9°
